Location: Blangy
(50.4215°N, 2.1687°E)
Time: 18:58:10
(UTC+00:00)

Daily predictions for brighter satellites

Satellite Brightness Start Highest point End
(mag) Time Altitude Azimuth Time Altitude Azimuth Time Altitude Azimuth
Cosmos 2016 Rocket 4.1 16:25:56 10° S 16:32:12 70° E 16:38:33 10° NNE
CBERS-1 4.0 16:29:36 10° SSE 16:34:42 80° ENE 16:39:51 10° NNW
Tsikada Rocket 4.1 16:28:24 10° N 16:34:49 66° ENE 16:41:08 10° SSE
Cosmos 1606 3.7 16:33:15 10° SW 16:35:40 31° WNW 16:38:07 10° N
Cosmos 2084 Rocket 3.4 16:35:01 10° SW 16:39:12 87° NW 16:43:26 10° NE
SMAP 3.2 16:38:01 10° SE 16:42:31 51° ENE 16:47:03 10° N
Cosmos 540 Rocket 3.7 16:38:50 10° NNW 16:43:49 48° ENE 16:48:46 10° SE
SJ 16-02 3.2 16:44:41 10° ESE 16:46:07 11° E 16:47:33 10° ENE
Cosmos 1869 4.0 16:44:54 10° SSE 16:47:52 26° E 16:50:50 10° NNE
SWARM A 4.4 16:45:12 10° N 16:48:32 76° W 16:51:50 10° S
YAOGAN 1 4.1 16:46:48 10° E 16:49:23 16° ENE 16:51:58 10° NNE
IGS 5A 3.3 16:45:37 10° SSE 16:49:35 84° ENE 16:53:35 10° NNW
Cosmos 1763 Rocket 3.5 16:47:07 10° NNW 16:52:20 64° ENE 16:57:26 10° SE
SL-16 R/B 2.6 16:46:23 10° NNE 16:52:42 88° ESE 16:58:57 10° SSW
Landsat 7 4.0 16:50:13 10° SE 16:54:41 49° ENE 16:59:11 10° N
SAR-Lupe-5 4.1 16:52:06 10° NNE 16:54:43 75° ESE 16:57:22 10° S
Timation 1 Rocket 4.3 16:51:57 10° NNW 16:57:55 71° NE 17:03:53 10° SE
RESURS DK-1 2.2 16:54:00 10° NNW 16:58:01 69° ENE 17:02:00 10° SE
Cosmos 1140 Rocket 3.5 16:54:24 10° SSW 16:59:34 82° ESE 17:04:45 10° NNE
CZ-4C R/B 3.2 16:56:26 10° W 17:00:48 34° NNW 17:06:21 10° NE
Aureole 3 Rocket 3.5 16:58:33 10° SE 17:00:56 21° E 17:03:30 10° NE
UNK 3.7 17:01:03 10° NNE 17:05:40 66° ESE 17:10:15 10° S
Meteor 1-28 Rocket 3.2 17:02:27 10° N 17:05:50 69° WNW 17:09:10 10° SSW
Meteor 2-12 Rocket 4.4 17:02:43 10° N 17:08:50 68° ENE 17:14:52 10° SSE
Cosmos 1400 Rocket 4.2 17:07:52 10° SE 17:10:23 17° E 17:11:08 16° ENE
SJ-12 3.6 17:07:15 10° SSE 17:11:00 65° ENE 17:14:47 10° N
Cosmos 1536 Rocket 4.3 17:07:30 10° N 17:11:27 30° ENE 17:15:20 10° SE
SAR-Lupe-3 4.3 17:13:47 16° NE 17:15:30 36° E 17:17:58 10° S
Okean 2 Rocket 4.2 17:14:24 10° SE 17:17:46 22° E 17:20:03 15° NE
Cosmos 1269 Rocket 4.4 17:14:01 10° SW 17:19:14 65° WNW 17:24:31 10° NNE
CORIOLIS 4.4 17:15:20 10° S 17:20:40 73° WSW 17:26:03 10° NNW
IRS-1C 4.2 17:16:49 10° SSE 17:22:09 88° WSW 17:27:31 10° NNW
ATLAS CENTAUR R/B 3.3 17:22:56 10° WNW 17:25:01 15° NNW 17:27:05 10° N
SL-12 R/B(2) 4.4 17:18:25 10° SSW 17:26:20 69° SE 17:35:47 11° NE
COSMO-SKYMED 1 3.6 17:26:49 21° ENE 17:27:32 22° E 17:30:47 10° SE
Resurs 01 Rocket 3.3 17:30:11 16° NE 17:30:11 16° NE 17:31:59 10° NNE
Cosmos 1943 Rocket 2.1 17:24:28 10° SSW 17:30:01 67° ESE 17:35:17 11° NE
Timation 2 Rocket 4.2 17:24:31 10° SSW 17:31:22 74° ESE 17:38:12 10° NE
Cosmos 841 Rocket 3.8 17:28:00 10° NNW 17:33:02 42° ENE 17:38:00 10° SE
Cosmos 2058 2.7 17:29:36 10° N 17:33:33 61° ENE 17:37:29 10° SSE
Cosmos 2251 Rocket 3.7 17:29:03 10° S 17:34:08 50° ESE 17:38:36 14° NE
BREEZE-M DEB (TANK) 2.6 17:34:39 10° SW 17:37:08 53° SSE 17:39:49 23° E
Cosmos 2082 Rocket 2.1 17:32:35 10° NNW 17:38:14 82° ENE 17:43:51 10° SSE
ATLAS 2AS CENTAUR R/B 3.2 17:32:17 10° NW 17:38:37 38° NNE 17:42:14 23° E
Cosmos 1346 Rocket 4.1 17:36:54 10° N 17:38:39 20° NNE 17:38:39 20° NNE
Cosmos 2278 Rocket 2.1 17:37:51 10° SSW 17:43:30 79° ESE 17:48:33 13° NNE
IRAS Rocket 4.2 17:38:20 10° SE 17:43:45 58° ENE 17:49:10 10° N
Cosmos 1602 3.0 17:41:46 10° N 17:44:50 89° WNW 17:47:54 10° S
MOS 1 Rocket 3.1 17:41:31 10° SSE 17:45:51 88° ENE 17:50:26 10° NNW
Cosmos 468 Rocket 4.0 17:42:13 10° NNW 17:47:27 85° WSW 17:52:36 10° SSE
Cosmos 1464 Rocket 4.0 17:44:07 10° S 17:50:16 61° E 17:56:23 10° NNE
ARIANE 5 R/B 3.4 17:46:05 10° S 17:50:54 50° W 17:55:48 10° NNW
CZ-2D R/B 3.3 17:47:30 10° SSE 17:51:38 71° ENE 17:55:51 10° N
USA 215 4.1 17:49:06 10° SSE 17:55:24 50° SW 18:01:45 10° WNW
Cosmos 1862 2.9 17:52:21 10° N 17:56:00 79° E 17:59:38 10° SSE
PSLV R/B 3.3 17:53:29 10° SSE 17:57:27 58° ENE 18:01:25 10° N
Geosat FO 4.4 17:57:42 20° SSE 17:59:30 62° WSW 18:02:22 10° NW
Cosmos 2151 Rocket 3.5 17:56:21 10° S 18:00:48 70° E 18:05:04 11° NNE
Cosmos 1190 Rocket 3.9 17:56:38 10° SSW 18:01:53 71° ESE 18:05:27 21° NNE
ISS -4.0 18:00:17 10° WSW 18:03:38 84° SSE 18:03:52 76° E
Cosmos 2034 Rocket 4.1 17:58:16 10° SSE 18:04:14 53° E 18:10:19 10° NNE
Cosmos 1812 2.9 18:02:13 10° SSW 18:05:02 48° WNW 18:06:21 26° NNW
Cosmos 676 Rocket 4.2 17:59:58 10° S 18:05:03 48° ESE 18:06:42 36° ENE
SKYMED 2 3.4 18:03:51 16° NNE 18:07:16 76° ESE 18:11:37 10° S
Okean 1 Rocket 3.1 18:03:13 10° S 18:07:30 54° E 18:08:25 44° NE
Cosmos 1656 Rocket 4.1 18:02:40 10° S 18:07:42 36° ESE 18:08:00 36° E
Cosmos 220 Rocket 4.2 18:07:45 10° NNW 18:11:16 46° NE 18:11:16 46° NE
Cosmos 407 Rocket 4.2 18:07:21 10° SW 18:12:23 51° WNW 18:17:08 11° NNE
Sich 1 Rocket 3.5 18:08:45 10° S 18:13:14 63° E 18:14:56 36° NNE
USA 281 3.6 18:11:29 34° E 18:13:18 41° NE 18:19:24 10° NNW
COSMOS 2406 3.1 18:08:12 10° NNW 18:13:55 85° ENE 18:19:01 13° SSE
Cosmos 1954 Rocket 3.9 18:09:04 10° SSW 18:14:19 73° ESE 18:16:53 31° NNE
Cosmos 1092 Rocket 4.0 18:09:49 10° N 18:15:59 54° ENE 18:22:00 10° SSE
BlueWalker 3 4.2 18:15:01 10° S 18:15:40 13° S 18:15:40 13° S
SL-19 R/B 4.0 18:13:46 10° SSE 18:18:58 88° WSW 18:24:15 10° NNW
Cosmos 2026 Rocket 3.8 18:14:56 10° N 18:21:01 65° ENE 18:27:07 10° SSE
SJ 16-02 1.2 18:19:13 10° SSW 18:23:32 88° WNW 18:24:29 54° NNE
Cosmos 44 Rocket 3.6 18:19:36 10° SW 18:24:23 64° NW 18:26:14 37° NNE
YAOGAN 1 2.6 18:20:28 10° S 18:24:42 74° WSW 18:29:00 10° NNW
SPOT 1/Viking Rocket 4.1 18:21:24 10° S 18:26:29 59° W 18:31:39 10° NNW
Cosmos 2344 3.8 18:24:01 10° NW 18:31:49 82° NE 18:38:34 24° SE
Cosmos 2297 Rocket 4.3 18:31:21 10° N 18:33:09 13° NNE 18:33:09 13° NNE
Meteor 2-3 Rocket 3.6 18:31:13 10° NNW 18:36:58 89° W 18:42:36 10° S
Resurs 1-3 4.1 18:35:02 10° S 18:39:15 56° W 18:43:31 10° NNW
Cosmos 1400 Rocket 3.7 18:41:51 10° SSW 18:45:31 44° WNW 18:45:47 43° WNW
Cosmos 304 Rocket 3.9 18:43:39 10° SSW 18:48:22 71° WNW 18:48:47 67° NNW
Cosmos 371 Rocket 3.4 18:45:25 10° SSW 18:50:13 72° WNW 18:50:35 68° NNW
CZ-4C R/B 3.9 18:46:17 10° NW 18:50:49 24° N 18:51:49 23° NNE
Cosmos 1627 Rocket 4.5 18:47:37 10° NNW 18:53:46 80° W 18:59:57 10° S
Okean 2 Rocket 4.1 18:51:16 10° SSW 18:55:27 44° WNW 18:57:21 27° NNW
COSMO-SKYMED 1 3.6 19:03:10 42° WNW 19:03:10 42° WNW 19:06:56 10° SW
Resurs 01 Rocket 3.4 19:07:36 24° NNW 19:07:36 24° NNW 19:09:25 10° NNW
Geosat 4.4 19:05:27 57° SW 19:05:53 60° WSW 19:10:51 10° NW
BREEZE-M DEB (TANK) 3.8 19:08:32 10° WSW 19:11:47 75° SW 19:11:47 75° SW
Cosmos 1943 Rocket 3.9 19:09:24 10° WSW 19:14:13 28° NW 19:16:48 20° N
Cosmos 2278 Rocket 4.0 19:23:33 10° W 19:28:13 26° NW 19:30:23 20° N
ATLAS 2AS CENTAUR R/B 2.7 19:23:19 10° NW 19:29:41 76° W 19:29:41 76° W
Cosmos 1634 Rocket 4.5 19:29:45 10° SSW 19:42:27 - N 19:34:50 55° SW
Cosmos 2369 Rocket 4.3 19:30:56 10° SSW 19:31:59 16° SSW 19:31:59 16° SSW
USA 281 3.8 19:58:21 52° W 19:58:21 52° W 20:04:07 10° NNW
SJ 16-02 4.3 19:59:54 10° W 20:01:03 13° WNW 20:01:03 13° WNW
